Regional Weather Roundup
Issued by NWS Jackson, KY

Home | Current Version | Previous Version | Graphics & Text | Print | Product List | Glossary On
Versions: 1 2 3 4 5 6 7 8 9 10 11 12 13 14 15 16 17 18 19 20 21 22 23 24 25 26 27 28
000
ASUS43 KJKL 291610
RWRJKL

EAST KENTUCKY HOURLY WEATHER ROUNDUP
NATIONAL WEATHER SERVICE JACKSON KY
1200 PM EDT FRI APR 29 2016

NOTE: "FAIR" INDICATES FEW OR NO CLOUDS BELOW 12,000 FEET WITH
NO SIGNIFICANT WEATHER AND/OR OBSTRUCTIONS TO VISIBILITY.

* THESE REPORTS ARE NOT UNDER NWS QUALITY CONTROL AND MAY NOT
  REPORT WEATHER SUCH AS PRECIPITATION AND FOG.

KYZ079-080-083-085-087-088-110-112-115-119-120-291700
...EASTERN KENTUCKY...

CITY           SKY/WX    TMP DP  RH WIND       PRES   REMARKS
JACKSON        SUNNY     71  51  49 CALM      30.04F
LONDON         SUNNY     70  50  49 W5        30.06R
SOMERSET*      MOSUNNY   70  52  52 CALM      30.06F
MONTICELLO*    SUNNY     73  54  51 VRB7      30.06F
WILLIAMSBURG*  SUNNY     72  52  49 E3        30.05F
MIDDLESBORO*   SUNNY     75  49  39 N3        30.06S
HARLAN APT*      N/A     73  48  40 S6        30.06S
HAZARD APT*    SUNNY     72  52  49 SW8       30.04F
BLACK MTN*       N/A     64  45  48 NE2         N/A
PIKE CO APT*     N/A     70  51  51 W8        30.04F
BIG SANDY APT* SUNNY     71  53  53 W3        30.03F
MOREHEAD APT*  MOSUNNY   68  52  56 W9G16     30.05S
$$

KYZ035-036-041-042-044-050-067-078-099-291700
...CENTRAL KENTUCKY...

CITY           SKY/WX    TMP DP  RH WIND       PRES   REMARKS
MT STERLING*   SUNNY     68  54  60 W13       30.06S
FLEMING/MASON* MOSUNNY  N/A N/A N/A W13G18    30.04S
DANVILLE*      MOSUNNY   66  54  63 N5        30.06F
RICHMOND*      MOSUNNY   66  54  63 W3        30.06R
LEXINGTON      MOSUNNY   66  52  60 W7        30.05S
FRANKFORT      SUNNY     66  46  48 VRB3      30.05R
LOUISVILLE     CLOUDY    68  43  40 CALM      30.03F
LEBANON*         N/A     66  52  59 NW3       30.04F
BOWLING GREEN  MOSUNNY   71  56  58 NE7       30.03S
$$

KYZ091>093-OHZ055-061-077-WVZ005-015-034-035-042-291700
...SOUTHERN OHIO/WEST VIRGINIA...

CITY           SKY/WX    TMP DP  RH WIND       PRES   REMARKS
COVINGTON      CLOUDY    63  50  62 NW10      30.04R
COLUMBUS       CLOUDY    52  48  86 NW5       30.03R
DAYTON         CLOUDY    57  50  77 NW8       30.04F
WILMINGTON     CLOUDY    56  51  84 NW8       30.03R
HUNTINGTON       N/A     72  53  51 SW9       30.00S
CHARLESTON       N/A     70  51  51 W7G17     30.00R
PINEVILLE*       N/A     72  45  38 MISG      30.08F
BECKLEY          N/A     67  45  45 NW17G26   30.05R
$$

VAZ002-007-008-TNZ017-027-036-066-071-291700
...SOUTHWEST VIRGINIA/EAST TENNESSEE...

CITY           SKY/WX    TMP DP  RH WIND       PRES   REMARKS
WISE*            N/A     70  34  26 NW8       30.09F
BRISTOL        MOSUNNY   73  50  44 W7        30.05F
MORRISTOWN*    SUNNY     75  46  35 VRB6      30.06S
KNOXVILLE      MOSUNNY   77  46  33 CALM      30.04F
OAK RIDGE      SUNNY     77  49  37 CALM      30.05F
CROSSVILLE     SUNNY     76  43  30 VRB6      30.06F
NASHVILLE      CLOUDY    75  53  46 E5        30.02S
$$

...KEY TO REMARKS...
VSB - VISIBILITY IN MILES
WCI - WIND CHILL INDEX
HX  - HEAT INDEX

$$




USA.gov is the U.S. government's official web portal to all federal, state and local government web resources and services.